Location: ??????
(42.0089°N, 44.3281°E)
Time: 19:42:08
(UTC+00:00)

CZ-2C R/B - Pass Details

Date: 06 June 2022
Orbit: 785 x 869 km, 98.2° (Epoch: 25 June)

Event Time Altitude Azimuth Distance (km) Brightness Sun altitude
Rises 23:41:33 0° 103° (ESE) 3,320 6.1 -15.4°
Maximum altitude 23:47:04 10° 55° (NE) 2,425 6.3 -14.8°
Drops below altitude 10° 23:47:10 10° 54° (NE) 2,426 6.4 -14.8°
Sets 23:52:40 0° 9° (N) 3,396 6.9 -14.1°
